User: anonymous   Login
Location: Buckland
(65.9785°N, 161.1281°W)
Time: 18:21:17
(UTC+00:00)
Language:

deb Explorer IX - Orbit

View from above orbital plane
View from above orbital plane
View from above satellite
View from above satellite

Ground track
Ground track

The orbit data is extracted from the following two-line orbital elements,

1 00085U 61004C   20338.04831669  .00001704  00000-0  36745-3 0  9997
2 00085  38.7698 240.5229 0394159 184.5857 175.1219 14.21244322955087
Epoch (UTC): 03 December 2020 01:09:34
Eccentricity: 0.0394159
inclination: 38.7698°
perigee height: 537 km
apogee height: 1105 km
right ascension of ascending node: 240.5229°
argument of perigee: 184.5857°
revolutions per day: 14.21244322
mean anomaly at epoch: 175.1219°
orbit number at epoch: 95508

The dashed part of the orbit path shows where the satellite is in the earth's shadow,  

DLR